2017-008R

Last updated on Feb. 28, 2017, 12:15 a.m. UTC

1 41963U 17008R   17058.70147120  .00001475  00000-0  68939-4 0  9998
2 41963  97.5098 120.3034 0008069 209.0419 151.0367 15.21376256  1725
UTC
Height (km)
Latitude
Longitude
Inclination
Orbital Period
UTC large
Height (km)
Speed (km/s)
/
Latitude / Longitude
Inclination (degrees)
Orbital Period (minutes)
Azimuth
Elevation
Range (km)
Doppler Factor
iOS Compass Heading
iOS Angle